• In Portugal
  • List of Countries
  • For 7 days
  • Water Temperature
  • Satellite Maps
  • Weather Map
  • Weather Widgets
  • user-avatar
    Login

    Hourly Weather Meshhed

    Today, 23 November, Thursday

    Time Temperature Precipitation Wind Pressure Humidity
    00:00 +4°C° 0 mm 3 mps 608 mmHg 45%
    01:00 +4°C° 0 mm 3 mps 608 mmHg 46%
    02:00 +5°C° 0 mm 2 mps 608 mmHg 47%
    03:00 +5°C° 0 mm 2 mps 608 mmHg 48%
    04:00 +5°C° 0 mm 2 mps 608 mmHg 50%
    05:00 +4°C° 0 mm 2 mps 608 mmHg 50%
    06:00 +4°C° 0 mm 2 mps 608 mmHg 51%
    07:00 +4°C° 0 mm 2 mps 608 mmHg 51%
    08:00 +6°C° 0 mm 2 mps 609 mmHg 46%
    09:00 +8°C° 0 mm 2 mps 610 mmHg 41%
    10:00 +12°C° 0 mm 1 mps 611 mmHg 36%
    11:00 +13°C° 0 mm 2 mps 611 mmHg 34%
    12:00 +13°C° 0 mm 2 mps 611 mmHg 33%
    13:00 +14°C° 0 mm 2 mps 611 mmHg 31%
    14:00 +14°C° 0 mm 2 mps 610 mmHg 31%
    15:00 +14°C° 0 mm 2 mps 610 mmHg 30%
    16:00 +14°C° 0 mm 2 mps 610 mmHg 30%
    17:00 +13°C° 0 mm 2 mps 610 mmHg 33%
    18:00 +12°C° 0 mm 2 mps 609 mmHg 35%
    19:00 +9°C° 0 mm 2 mps 609 mmHg 38%
    20:00 +9°C° 0 mm 2 mps 609 mmHg 40%
    21:00 +8°C° 0 mm 2 mps 609 mmHg 41%
    22:00 +8°C° 0 mm 1 mps 608 mmHg 43%
    23:00 +8°C° 0 mm 1 mps 609 mmHg 43%

    Tomorrow, 24 November, Friday

    Time Temperature Precipitation Wind Pressure Humidity
    00:00 +8°C° 0 mm 1 mps 609 mmHg 43%
    01:00 +8°C° 0 mm 1 mps 609 mmHg 43%
    02:00 +8°C° 0.1 mm 1 mps 609 mmHg 44%
    03:00 +7°C° 0.1 mm 1 mps 609 mmHg 45%
    04:00 +7°C° 0.1 mm 1 mps 609 mmHg 46%
    05:00 +6°C° 0 mm 2 mps 610 mmHg 49%
    06:00 +5°C° 0 mm 2 mps 610 mmHg 52%
    07:00 +4°C° 0 mm 2 mps 610 mmHg 56%
    08:00 +4°C° 0 mm 3 mps 610 mmHg 53%
    09:00 +5°C° 0 mm 3 mps 611 mmHg 51%
    10:00 +7°C° 0 mm 3 mps 612 mmHg 48%
    11:00 +8°C° 0 mm 3 mps 612 mmHg 45%
    12:00 +9°C° 0 mm 3 mps 612 mmHg 43%
    13:00 +10°C° 0 mm 3 mps 611 mmHg 40%
    14:00 +10°C° 0 mm 3 mps 611 mmHg 41%
    15:00 +10°C° 0 mm 3 mps 611 mmHg 41%
    16:00 +10°C° 0 mm 3 mps 611 mmHg 42%
    17:00 +9°C° 0 mm 3 mps 610 mmHg 47%
    18:00 +8°C° 0 mm 2 mps 610 mmHg 53%
    19:00 +7°C° 0 mm 2 mps 610 mmHg 58%
    20:00 +6°C° 0.3 mm 2 mps 610 mmHg 60%
    21:00 +7°C° 0.3 mm 1 mps 610 mmHg 62%
    22:00 +7°C° 0.3 mm 1 mps 610 mmHg 63%
    23:00 +7°C° 0.3 mm 1 mps 609 mmHg 63%

    Day after tomorrow, 25 November, Saturday

    Time Temperature Precipitation Wind Pressure Humidity
    00:00 +6°C° 0.3 mm 1 mps 609 mmHg 63%
    01:00 +6°C° 0.3 mm 1 mps 609 mmHg 62%
    02:00 +4°C° 0 mm 2 mps 609 mmHg 61%
    03:00 +4°C° 0 mm 2 mps 609 mmHg 59%
    04:00 +3°C° 0 mm 2 mps 609 mmHg 57%
    05:00 +3°C° 0 mm 2 mps 609 mmHg 55%
    06:00 +2°C° 0 mm 3 mps 610 mmHg 52%
    07:00 +1°C° 0 mm 3 mps 610 mmHg 50%
    08:00 +3°C° 0 mm 3 mps 611 mmHg 43%
    09:00 +4°C° 0 mm 4 mps 612 mmHg 36%
    10:00 +5°C° 0 mm 4 mps 613 mmHg 29%
    11:00 +5°C° 0 mm 4 mps 613 mmHg 29%
    12:00 +6°C° 0 mm 4 mps 613 mmHg 28%
    13:00 +6°C° 0 mm 4 mps 613 mmHg 27%
    14:00 +5°C° 0 mm 4 mps 613 mmHg 31%
    15:00 +5°C° 0 mm 4 mps 613 mmHg 34%
    16:00 +5°C° 0 mm 3 mps 613 mmHg 37%
    17:00 +4°C° 0 mm 3 mps 613 mmHg 44%
    18:00 +3°C° 0 mm 3 mps 614 mmHg 50%
    19:00 +2°C° 0 mm 3 mps 614 mmHg 57%
    20:00 +2°C° 0 mm 2 mps 614 mmHg 60%
    21:00 +2°C° 0 mm 2 mps 614 mmHg 64%
    22:00 +1°C° 0 mm 2 mps 614 mmHg 67%
    23:00 +1°C° 0 mm 2 mps 614 mmHg 68%

    26 November, Sunday

    Time Temperature Precipitation Wind Pressure Humidity
    00:00 -1°C° 0 mm 2 mps 614 mmHg 68%
    01:00 -1°C° 0 mm 2 mps 615 mmHg 69%
    02:00 -1°C° 0 mm 2 mps 615 mmHg 68%
    03:00 -2°C° 0 mm 2 mps 615 mmHg 66%
    04:00 -2°C° 0 mm 2 mps 615 mmHg 65%
    05:00 -2°C° 0 mm 2 mps 615 mmHg 63%
    06:00 -3°C° 0 mm 2 mps 616 mmHg 62%
    07:00 -4°C° 0 mm 3 mps 616 mmHg 60%
    08:00 -2°C° 0 mm 3 mps 617 mmHg 52%
    09:00 -1°C° 0 mm 3 mps 618 mmHg 44%
    10:00 0°C° 0 mm 3 mps 618 mmHg 35%
    11:00 +2°C° 0 mm 2 mps 618 mmHg 32%
    12:00 +3°C° 0 mm 2 mps 618 mmHg 28%
    13:00 +3°C° 0 mm 2 mps 618 mmHg 24%
    14:00 +3°C° 0 mm 2 mps 618 mmHg 24%
    15:00 +3°C° 0 mm 2 mps 617 mmHg 24%
    16:00 +4°C° 0 mm 1 mps 617 mmHg 23%
    17:00 +3°C° 0 mm 2 mps 617 mmHg 27%
    18:00 +2°C° 0 mm 2 mps 617 mmHg 31%
    19:00 0°C° 0 mm 3 mps 617 mmHg 35%
    20:00 -1°C° 0 mm 3 mps 617 mmHg 40%
    21:00 -1°C° 0 mm 2 mps 616 mmHg 45%
    22:00 -1°C° 0 mm 2 mps 616 mmHg 50%
    23:00 -2°C° 0 mm 2 mps 616 mmHg 52%

    27 November, Monday

    Time Temperature Precipitation Wind Pressure Humidity
    00:00 -2°C° 0 mm 2 mps 615 mmHg 54%
    01:00 -2°C° 0 mm 2 mps 615 mmHg 56%
    02:00 0°C° 0 mm 1 mps 614 mmHg 55%
    03:00 0°C° 0 mm 1 mps 614 mmHg 54%
    04:00 0°C° 0 mm 1 mps 614 mmHg 53%
    05:00 0°C° 0 mm 1 mps 614 mmHg 50%
    06:00 0°C° 0 mm 1 mps 613 mmHg 48%
    07:00 0°C° 0 mm 1 mps 613 mmHg 45%
    08:00 +2°C° 0 mm 1 mps 614 mmHg 38%
    09:00 +3°C° 0 mm 2 mps 615 mmHg 31%
    10:00 +5°C° 0 mm 2 mps 616 mmHg 24%
    11:00 +6°C° 0 mm 2 mps 616 mmHg 22%
    12:00 +7°C° 0 mm 2 mps 615 mmHg 21%
    13:00 +8°C° 0 mm 2 mps 615 mmHg 19%
    14:00 +8°C° 0 mm 2 mps 615 mmHg 20%
    15:00 +8°C° 0 mm 2 mps 615 mmHg 21%
    16:00 +7°C° 0 mm 2 mps 615 mmHg 22%
    17:00 +6°C° 0 mm 2 mps 614 mmHg 26%
    18:00 +5°C° 0 mm 2 mps 614 mmHg 30%
    19:00 +4°C° 0 mm 1 mps 614 mmHg 34%
    20:00 +4°C° 0 mm 1 mps 613 mmHg 36%
    21:00 +4°C° 0 mm 1 mps 613 mmHg 39%
    22:00 +3°C° 0 mm 1 mps 613 mmHg 41%
    23:00 +3°C° 0 mm 1 mps 613 mmHg 42%

    28 November, Tuesday

    Time Temperature Precipitation Wind Pressure Humidity
    00:00 +3°C° 0 mm 1 mps 612 mmHg 42%
    01:00 +3°C° 0 mm 1 mps 612 mmHg 43%
    02:00 +3°C° 0 mm 1 mps 612 mmHg 43%
    03:00 +2°C° 0 mm 1 mps 611 mmHg 44%
    04:00 +2°C° 0 mm 1 mps 611 mmHg 44%
    05:00 +2°C° 0 mm 1 mps 611 mmHg 43%
    06:00 +2°C° 0 mm 1 mps 611 mmHg 43%
    07:00 +2°C° 0 mm 1 mps 611 mmHg 42%
    08:00 +4°C° 0 mm 1 mps 612 mmHg 39%
    09:00 +5°C° 0 mm 1 mps 613 mmHg 35%
    10:00 +7°C° 0 mm 1 mps 614 mmHg 32%
    11:00 +7°C° 0 mm 1 mps 614 mmHg 31%
    12:00 +8°C° 0 mm 1 mps 613 mmHg 30%
    13:00 +9°C° 0 mm 1 mps 613 mmHg 29%
    14:00 +9°C° 0 mm 1 mps 613 mmHg 29%
    15:00 +9°C° 0 mm 1 mps 613 mmHg 30%
    16:00 +9°C° 0 mm 1 mps 613 mmHg 30%
    17:00 +8°C° 0 mm 1 mps 613 mmHg 34%
    18:00 +6°C° 0 mm 1 mps 612 mmHg 38%
    19:00 +5°C° 0 mm 1 mps 612 mmHg 42%
    20:00 +4°C° 0 mm 1 mps 612 mmHg 43%
    21:00 +4°C° 0 mm 1 mps 611 mmHg 45%
    22:00 +4°C° 0 mm 1 mps 611 mmHg 46%
    23:00 +3°C° 0 mm 1 mps 611 mmHg 46%
    Show more